Regional Weather Roundup
Issued by NWS

Home | Current Version | Previous Version | Graphics & Text | Print | Product List | Glossary On
Versions: 1 2 3 4 5 6 7 8 9 10 11 12 13 14 15 16 17 18 19 20 21 22 23 24 25 26 27
000
ASUS45 KCYS 221110
RWRWY

WYOMING REGIONAL WEATHER ROUNDUP
NATIONAL WEATHER SERVICE CHEYENNE WY
500 AM MDT TUE APR 22 2014

NOTE:  "FAIR" INDICATES FEW OR NO CLOUDS BELOW 12,000 FEET
WITH NO SIGNIFICANT WEATHER AND/OR OBSTRUCTIONS TO VISIBILITY.

WYZ001-221200-
YELLOWSTONE NATIONAL PARK

CITY           SKY/WX    TMP DP  RH WIND       PRES   REMARKS
LK YELLOWSTONE   N/A     32  31  96 CALM      30.07F
W YELLOWSTONE  NOT AVBL

$$
WYZ002>013-054>058-071-098>099-221200-
NORTHERN WYOMING

CITY           SKY/WX    TMP DP  RH WIND       PRES   REMARKS
JACKSON        CLOUDY    43  37  81 N20       29.97F
CODY           CLOUDY    54  34  47 W13G18    29.90F
GREYBULL       CLOUDY    47  34  60 W7        29.86S
WORLAND        PTCLDY    41  33  73 SW3       29.86F
SHERIDAN         N/A     36  28  75 E7          N/A  WCI  30
BUFFALO        MOCLDY    50  28  42 SW9       29.90F
GILLETTE       PTCLDY    45  32  60 CALM      29.90F
HULETT         FAIR      48  30  49 MISG      29.91
NEWCASTLE      FAIR      50  27  40 E12       29.94

$$
WYZ014>020-022>026-101>103-221200-
CENTRAL WYOMING

CITY           SKY/WX    TMP DP  RH WIND       PRES   REMARKS
BIG PINEY      MOCLDY    40  25  55 NE8       29.98F WCI  34
PINEDALE       CLOUDY    43  30  61 CALM      29.99F
DUBOIS         FAIR      39  27  60 NW12      29.95F WCI  32
LANDER         PTCLDY    41  25  53 CALM      29.89F
RIVERTON       PTCLDY    42  25  50 NW10      29.90F
CASPER         PTCLDY    35  29  78 N3        29.93F
DOUGLAS        MOCLDY    43  35  73 SE3       29.96F

$$
WYZ021-027>030-104>119-221200-
SOUTHERN WYOMING

CITY           SKY/WX    TMP DP  RH WIND       PRES   REMARKS
EVANSTON         N/A     50  27  40 CALM      29.97F
KEMMERER       CLOUDY    45  30  57 CALM      29.98F
FORT BRIDGER   FAIR      48  31  50 S14       30.00S
ROCK SPRINGS   MOCLDY    51  28  41 S9        29.98F
DIXON          FAIR      42  31  63 CALM      30.05F
RAWLINS        PTCLDY    49  24  37 SW5       30.02F
SARATOGA       FAIR      43  27  52 S16       30.05F
LARAMIE        PTCLDY    36  25  64 S12       30.07F WCI  28
CHEYENNE       PTCLDY    41  33  73 W6        30.05F
TORRINGTON     PTCLDY    43  30  60 E12       29.96F
PINE BLUFFS    FAIR      37  32  81 CALM      30.04S

$$



USA.gov is the U.S. government's official web portal to all federal, state and local government web resources and services.